Hourly Weather Ruchim

Today, 26 July, Monday

Time Temperature Precipitation Wind Pressure Humidity
00:00 +16°C° 0 mm 0 mps 743 mmHg 55%
01:00 +16°C° 0 mm 1 mps 743 mmHg 56%
02:00 +16°C° 0 mm 1 mps 743 mmHg 56%
03:00 +16°C° 0 mm 1 mps 743 mmHg 57%
04:00 +16°C° 0 mm 1 mps 743 mmHg 59%
05:00 +16°C° 0 mm 1 mps 744 mmHg 61%
06:00 +15°C° 0 mm 0 mps 744 mmHg 63%
07:00 +16°C° 0 mm 0 mps 744 mmHg 60%
08:00 +19°C° 0 mm 1 mps 744 mmHg 57%
09:00 +20°C° 0 mm 1 mps 744 mmHg 54%
10:00 +22°C° 0 mm 1 mps 744 mmHg 48%
11:00 +23°C° 0 mm 2 mps 744 mmHg 43%
12:00 +24°C° 0 mm 2 mps 744 mmHg 37%
13:00 +24°C° 0 mm 2 mps 744 mmHg 41%
14:00 +23°C° 0 mm 2 mps 744 mmHg 44%
15:00 +23°C° 0 mm 2 mps 743 mmHg 48%
16:00 +23°C° 0 mm 2 mps 743 mmHg 50%
17:00 +21°C° 0 mm 2 mps 743 mmHg 53%
18:00 +21°C° 0 mm 2 mps 743 mmHg 55%
19:00 +21°C° 0 mm 1 mps 743 mmHg 58%
20:00 +19°C° 0 mm 1 mps 743 mmHg 60%
21:00 +18°C° 0 mm 1 mps 743 mmHg 63%
22:00 +18°C° 0 mm 1 mps 743 mmHg 62%
23:00 +18°C° 0 mm 1 mps 743 mmHg 61%

Tomorrow, 27 July, Tuesday

Time Temperature Precipitation Wind Pressure Humidity
00:00 +18°C° 0 mm 1 mps 743 mmHg 60%
01:00 +18°C° 0 mm 1 mps 743 mmHg 60%
02:00 +17°C° 0 mm 2 mps 743 mmHg 61%
03:00 +17°C° 0 mm 2 mps 743 mmHg 62%
04:00 +17°C° 0 mm 2 mps 743 mmHg 64%
05:00 +17°C° 0 mm 2 mps 743 mmHg 65%
06:00 +17°C° 0 mm 2 mps 743 mmHg 67%
07:00 +18°C° 0 mm 2 mps 743 mmHg 63%
08:00 +20°C° 0 mm 2 mps 742 mmHg 58%
09:00 +23°C° 0 mm 2 mps 742 mmHg 54%
10:00 +24°C° 0 mm 3 mps 742 mmHg 49%
11:00 +25°C° 0 mm 3 mps 742 mmHg 44%
12:00 +27°C° 0 mm 3 mps 742 mmHg 39%
13:00 +26°C° 0 mm 4 mps 742 mmHg 42%
14:00 +25°C° 0 mm 4 mps 741 mmHg 46%
15:00 +25°C° 0 mm 4 mps 741 mmHg 49%
16:00 +23°C° 0 mm 4 mps 741 mmHg 53%
17:00 +22°C° 0 mm 3 mps 741 mmHg 57%
18:00 +22°C° 0 mm 3 mps 741 mmHg 62%
19:00 +20°C° 0 mm 2 mps 741 mmHg 67%
20:00 +19°C° 0 mm 2 mps 740 mmHg 72%
21:00 +18°C° 0 mm 1 mps 740 mmHg 77%
22:00 +16°C° 0 mm 1 mps 741 mmHg 78%
23:00 +16°C° 0 mm 1 mps 741 mmHg 78%

Day after tomorrow, 28 July, Wednesday

Time Temperature Precipitation Wind Pressure Humidity
00:00 +16°C° 0 mm 1 mps 741 mmHg 79%
01:00 +15°C° 0 mm 1 mps 740 mmHg 81%
02:00 +15°C° 0 mm 1 mps 740 mmHg 84%
03:00 +14°C° 0 mm 2 mps 740 mmHg 86%
04:00 +15°C° 0 mm 1 mps 740 mmHg 82%
05:00 +16°C° 0 mm 1 mps 741 mmHg 78%
06:00 +18°C° 0 mm 1 mps 741 mmHg 74%
07:00 +20°C° 0 mm 1 mps 741 mmHg 64%
08:00 +22°C° 0 mm 1 mps 741 mmHg 54%
09:00 +22°C° 0 mm 0 mps 741 mmHg 44%
10:00 +25°C° 0 mm 1 mps 741 mmHg 42%
11:00 +26°C° 0 mm 1 mps 741 mmHg 40%
12:00 +27°C° 0 mm 1 mps 740 mmHg 38%
13:00 +27°C° 0 mm 1 mps 740 mmHg 40%
14:00 +27°C° 0 mm 2 mps 740 mmHg 41%
15:00 +28°C° 0 mm 2 mps 739 mmHg 42%
16:00 +26°C° 0 mm 2 mps 739 mmHg 48%
17:00 +25°C° 0 mm 2 mps 739 mmHg 54%
18:00 +24°C° 0 mm 2 mps 739 mmHg 60%
19:00 +23°C° 0 mm 2 mps 738 mmHg 62%
20:00 +20°C° 0 mm 2 mps 738 mmHg 64%
21:00 +19°C° 0 mm 2 mps 738 mmHg 65%
22:00 +19°C° 0 mm 2 mps 738 mmHg 64%
23:00 +19°C° 0 mm 3 mps 737 mmHg 62%

29 July, Thursday

Time Temperature Precipitation Wind Pressure Humidity
00:00 +19°C° 0 mm 3 mps 737 mmHg 60%
01:00 +18°C° 0 mm 3 mps 737 mmHg 62%
02:00 +18°C° 0 mm 3 mps 736 mmHg 65%
03:00 +17°C° 0 mm 3 mps 736 mmHg 67%
04:00 +18°C° 0 mm 3 mps 736 mmHg 67%
05:00 +18°C° 0 mm 4 mps 736 mmHg 67%
06:00 +19°C° 0 mm 4 mps 735 mmHg 67%
07:00 +18°C° 0.1 mm 4 mps 735 mmHg 72%
08:00 +18°C° 0.1 mm 4 mps 734 mmHg 78%
09:00 +17°C° 0.1 mm 5 mps 734 mmHg 84%
10:00 +20°C° 0.1 mm 5 mps 734 mmHg 75%
11:00 +22°C° 0.1 mm 6 mps 733 mmHg 66%
12:00 +24°C° 0.1 mm 7 mps 733 mmHg 58%
13:00 +26°C° 0.1 mm 6 mps 733 mmHg 60%
14:00 +26°C° 0.1 mm 6 mps 733 mmHg 62%
15:00 +26°C° 0.1 mm 5 mps 732 mmHg 64%
16:00 +26°C° 0 mm 5 mps 732 mmHg 64%
17:00 +26°C° 0 mm 5 mps 732 mmHg 64%
18:00 +26°C° 0 mm 5 mps 732 mmHg 64%
19:00 +23°C° 0 mm 4 mps 732 mmHg 68%
20:00 +22°C° 0 mm 4 mps 732 mmHg 73%
21:00 +20°C° 0 mm 3 mps 732 mmHg 78%
22:00 +20°C° 0 mm 3 mps 732 mmHg 78%
23:00 +20°C° 0 mm 3 mps 732 mmHg 79%

30 July, Friday

Time Temperature Precipitation Wind Pressure Humidity
00:00 +19°C° 0 mm 3 mps 732 mmHg 79%
01:00 +19°C° 0 mm 3 mps 732 mmHg 80%
02:00 +18°C° 0 mm 3 mps 732 mmHg 80%
03:00 +18°C° 0 mm 3 mps 732 mmHg 81%
04:00 +18°C° 0 mm 2 mps 733 mmHg 79%
05:00 +19°C° 0 mm 2 mps 733 mmHg 78%
06:00 +19°C° 0 mm 2 mps 733 mmHg 76%
07:00 +23°C° 0 mm 2 mps 733 mmHg 68%
08:00 +25°C° 0 mm 2 mps 733 mmHg 59%
09:00 +27°C° 0 mm 2 mps 734 mmHg 51%
10:00 +28°C° 0 mm 3 mps 734 mmHg 48%
11:00 +29°C° 0 mm 3 mps 734 mmHg 44%
12:00 +30°C° 0 mm 3 mps 734 mmHg 41%
13:00 +29°C° 0 mm 3 mps 733 mmHg 46%
14:00 +28°C° 0 mm 3 mps 733 mmHg 51%
15:00 +27°C° 0 mm 2 mps 733 mmHg 56%
16:00 +27°C° 0 mm 3 mps 733 mmHg 57%
17:00 +27°C° 0 mm 3 mps 733 mmHg 58%
18:00 +27°C° 0 mm 3 mps 733 mmHg 59%
19:00 +26°C° 0 mm 2 mps 733 mmHg 63%
20:00 +24°C° 0 mm 2 mps 733 mmHg 67%
21:00 +23°C° 0 mm 1 mps 733 mmHg 71%
22:00 +22°C° 0 mm 1 mps 733 mmHg 73%
23:00 +22°C° 0 mm 1 mps 733 mmHg 76%

31 July, Saturday

Time Temperature Precipitation Wind Pressure Humidity
00:00 +22°C° 0 mm 1 mps 734 mmHg 78%
01:00 +21°C° 0 mm 1 mps 734 mmHg 78%
02:00 +19°C° 0 mm 0 mps 733 mmHg 79%
03:00 +19°C° 0 mm 0 mps 733 mmHg 79%
04:00 +20°C° 0 mm 0 mps 734 mmHg 79%
05:00 +20°C° 0 mm 0 mps 734 mmHg 78%
06:00 +20°C° 0 mm 0 mps 734 mmHg 78%
07:00 +24°C° 0 mm 1 mps 734 mmHg 72%
08:00 +26°C° 0 mm 1 mps 734 mmHg 65%
09:00 +28°C° 0 mm 1 mps 734 mmHg 59%
10:00 +29°C° 0 mm 1 mps 734 mmHg 54%
11:00 +30°C° 0 mm 2 mps 734 mmHg 50%
12:00 +31°C° 0 mm 2 mps 734 mmHg 45%
13:00 +31°C° 0 mm 2 mps 734 mmHg 43%
14:00 +33°C° 0 mm 3 mps 734 mmHg 40%
15:00 +33°C° 0 mm 3 mps 734 mmHg 38%
16:00 +31°C° 0 mm 3 mps 734 mmHg 43%
17:00 +30°C° 0 mm 2 mps 734 mmHg 49%
18:00 +29°C° 0 mm 2 mps 734 mmHg 54%
19:00 +27°C° 0 mm 2 mps 734 mmHg 60%
20:00 +25°C° 0 mm 1 mps 734 mmHg 65%
21:00 +23°C° 0 mm 1 mps 734 mmHg 71%
22:00 +23°C° 0 mm 1 mps 734 mmHg 72%
23:00 +21°C° 0 mm 2 mps 734 mmHg 73%
Show more

We Need Your Consent

Meteoprog and our Service Providers may store and access personal data such as cookies, device identifiers or other similar technologies on your device and process such data to personalise content and ads, as well as provide social media features and to analyse the traffic.

  • Store and/or access information on your device

    Cookies, device identifiers or other information can be stored or accessed on your device for the purposes indicated above.

  • Personalised ads and content, ad and content measurement, audience insights, and products development

    Ads and content can be personalised based on a profile. More data can be added to better personalise ads and content. Ad and content performance can be measured. Insights about the audience who saw the ads and content can be derived. Such data can be used to develop or improve user’s experience, systems and software.

By clicking ‘I Agree’ you will allow the use of indicated cookies, device identifiers, web beacons or other similar technologies. Your settings can be changed in the browser on your device.

For certain purposes, legitimate interests may be relied on, rather than consent. You can read more about this in our Privacy and Cookie Policy.